Location: Cargedolo
(44.2667°N, 10.5667°E)
Time: 20:06:38
(UTC+00:00)

Daily predictions for brighter satellites

Satellite Brightness Start Highest point End
(mag) Time Altitude Azimuth Time Altitude Azimuth Time Altitude Azimuth
BREEZE M DEB (TANK) 3.2 17:23:27 10° W 17:26:13 89° S 17:40:16 10° E
Meteor 2-9 Rocket 4.4 17:31:33 10° S 17:37:18 61° E 17:43:05 10° NNE
H-2A R/B 2.4 17:34:18 10° S 17:39:17 73° WSW 17:44:27 10° NNW
YAOGAN 1 2.8 17:40:10 10° SSE 17:44:20 50° ENE 17:48:33 10° N
Cosmos 1833 Rocket 4.2 17:42:08 10° NW 17:47:22 41° WSW 17:52:35 10° S
Landsat 5 4.2 17:45:32 10° N 17:49:21 56° WNW 17:53:15 10° SSW
ATLAS CENTAUR R/B 2.6 17:45:13 10° NNW 17:49:23 31° NE 17:53:41 10° ESE
Cosmos 1461 3.4 17:45:39 10° NNW 17:49:26 38° NE 17:53:07 10° ESE
SL-08 RB Rocket 3.7 17:45:58 10° SSE 17:50:22 62° ENE 17:54:47 10° N
Cosmos 1674 Rocket 3.7 17:47:17 10° N 17:51:32 51° ENE 17:55:44 10° SSE
Cosmos 1626 4.2 17:50:26 10° NE 17:51:33 11° ENE 17:52:40 10° E
Cosmos 1340 2.8 17:48:51 10° N 17:52:33 50° ENE 17:56:12 10° SSE
USA 215 3.5 17:47:23 10° ESE 17:53:46 58° NNE 18:00:11 10° NW
Cosmos 1238 Rocket 4.3 17:49:11 10° SSE 17:55:06 40° E 18:00:28 10° NNE
COSMO-SKYMED 1 3.6 17:52:26 10° N 17:56:40 52° WNW 18:00:53 10° SSW
SJ 16-02 3.1 17:55:20 10° ESE 17:56:57 12° E 17:58:35 10° ENE
Cosmos 1842 3.4 17:53:34 10° N 17:57:32 78° W 18:01:26 10° S
CSL-04 Rocket 4.3 17:52:44 10° SE 17:57:35 37° ENE 18:02:31 10° N
Spot 2 4.4 17:54:09 10° S 17:58:27 69° WSW 18:02:34 10° NNW
CZ-4B R/B 2.0 18:00:41 10° NE 18:03:24 29° E 18:06:10 10° SSE
Cosmos 968 Rocket 4.1 17:58:25 10° SSW 18:03:37 62° WNW 18:08:51 10° NNE
Cosmos 2221 Rocket 4.2 18:04:30 10° NNW 18:08:52 60° W 18:13:11 10° S
Nadezhda 3 Rocket 4.4 18:04:13 10° N 18:10:02 42° ENE 18:15:49 10° SE
Cosmos 2082 Rocket 3.0 18:06:09 10° NNW 18:11:43 55° WSW 18:17:15 10° S
CZ-4 R/B 1.4 18:08:52 10° S 18:12:41 75° WSW 18:16:33 10° NNW
Lacrosse 5 rocket 2.3 18:08:48 10° NW 18:13:04 37° NNE 18:16:05 17° E
Okean 2 3.3 18:10:02 10° N 18:14:08 84° E 18:18:12 10° S
Cosmos 1733 Rocket 3.8 18:10:14 10° SSW 18:14:28 56° W 18:18:45 10° N
Cosmos 1975 3.3 18:13:39 10° SSW 18:17:35 63° W 18:21:33 10° N
Cosmos 1503 Rocket 3.9 18:13:57 10° S 18:19:07 71° ESE 18:24:18 10° NNE
HJ-1C 3.5 18:16:19 10° S 18:19:35 74° W 18:22:51 10° NNW
Cosmos 1782 Rocket 4.2 18:17:32 10° SSE 18:21:31 33° E 18:25:30 10° NNE
H-2A R/B 2.1 18:17:19 10° N 18:21:33 78° WNW 18:25:40 10° SSW
ARGOS 4.1 18:16:44 10° S 18:21:55 50° W 18:27:09 10° NNW
Cosmos 1315 Rocket 4.3 18:23:22 18° ENE 18:23:22 18° ENE 18:25:32 10° NE
Lacrosse 4 Rocket 4.2 18:20:28 10° W 18:22:52 15° NW 18:25:17 10° N
Geosat 4.1 18:19:42 10° NNE 18:24:45 80° WNW 18:29:46 10° SSW
USA 276 3.2 18:26:49 10° W 18:29:47 39° NNW 18:31:55 17° NE
Okean-O 2.6 18:25:40 10° SSE 18:30:06 89° W 18:34:34 10° NNW
Cosmos 1400 Rocket 2.7 18:27:10 10° S 18:31:15 78° E 18:35:20 10° NNE
SJ-6B 3.5 18:29:27 22° ESE 18:31:29 36° ENE 18:35:15 10° N
Cosmos 1777 Rocket 4.4 18:27:08 10° S 18:32:01 40° ESE 18:36:53 10° NE
Cosmos 1943 Rocket 2.1 18:26:39 10° SSW 18:32:12 86° ESE 18:37:52 10° NNE
Helios 1A Rocket 4.1 18:32:23 23° E 18:33:05 24° ENE 18:36:23 10° NNE
Cosmos 1354 Rocket 3.9 18:29:13 10° SSW 18:34:28 82° ESE 18:39:44 10° NNE
Cosmos 2074 Rocket 4.1 18:28:29 10° S 18:34:45 83° W 18:41:04 10° N
Cosmos 2369 Rocket 2.4 18:31:17 10° S 18:36:39 45° ESE 18:42:00 10° NE
GENESIS II 4.3 18:35:31 10° SSW 18:39:11 47° ESE 18:41:38 19° NE
Cosmos 2341 Rocket 4.5 18:34:33 10° SSE 18:40:17 38° E 18:46:04 10° NNE
CZ-2C R/B 4.4 18:36:30 10° N 18:41:31 37° WNW 18:46:35 10° SW
Cosmos 2297 4.0 18:36:37 10° SSW 18:42:17 73° WNW 18:48:01 10° NNE
BREEZE-M DEB (TANK) 4.0 18:34:11 10° WSW 18:43:00 61° NNW 18:45:09 21° NE
OBJECT-B 0.7 18:42:53 41° SE 18:43:43 58° ENE 18:46:50 10° N
Resurs 01 Rocket 3.2 18:46:34 19° ENE 18:46:34 19° ENE 18:49:22 10° NNE
Cosmos 1025 Rocket 3.9 18:42:47 10° NNE 18:46:36 29° ENE 18:46:44 29° ENE
Cosmos 1805 3.5 18:45:04 26° SSE 18:46:52 45° E 18:50:35 10° NNE
CSL-04 Debris 4.3 18:42:42 10° S 18:48:06 78° WSW 18:53:31 10° NNW
Cosmos 1975 Rocket 3.2 18:46:20 10° N 18:50:42 54° ENE 18:52:26 33° SE
PSLV R/B 3.8 18:47:06 10° NNE 18:51:17 85° ESE 18:55:24 10° SSW
USA 186 1.3 18:51:22 72° SE 18:51:34 78° ENE 18:54:35 10° N
COSMOS 2455 3.2 18:51:29 10° NW 18:57:28 64° WSW 19:02:30 15° SSE
Resurs 1-3 4.0 18:57:47 40° E 18:58:17 42° ENE 19:02:26 10° N
Meteor 2-5 Rocket 4.3 18:53:20 10° N 18:58:23 35° ENE 18:59:12 33° E
Cosmos 1184 Rocket 3.4 18:55:34 10° N 18:58:00 41° NNE 18:58:00 41° NNE
Meteor 1-12 Rocket 4.3 18:52:58 10° S 18:58:58 75° E 19:04:57 10° NNE
Cosmos 1300 Rocket 4.3 19:00:51 35° ENE 19:00:51 35° ENE 19:04:04 10° NNE
Atlas Centaur 2 4.0 18:54:35 10° SW 19:01:30 28° S 19:04:06 24° SE
ISS -1.9 18:58:42 10° WNW 19:01:35 25° N 19:02:48 20° NNE
Cosmos 1674 2.9 18:58:24 10° NNW 19:02:06 68° W 19:04:12 24° S
Cosmos 2263 4.2 18:58:05 10° S 19:03:31 53° ESE 19:08:58 10° NE
CZ-3 Stage 3 4.2 18:37:12 10° WSW 19:04:04 36° S 19:08:08 25° SE
Cosmos 773 Rocket 4.0 19:01:05 10° NNW 19:06:21 80° WSW 19:09:30 25° SSE
SeaSat 1 2.4 19:08:11 32° SSE 19:10:30 81° WSW 19:15:29 10° NNW
Cosmos 1766 4.4 19:12:34 31° NNE 19:12:34 31° NNE 19:14:46 10° NNE
Cosmos 1656 Rocket 3.5 19:11:19 10° SSW 19:16:50 66° ESE 19:22:19 10° NNE
Cosmos 962 Rocket 4.4 19:12:28 10° S 19:18:41 84° E 19:24:52 10° N
USA 281 3.4 19:15:34 10° NE 19:21:34 43° ESE 19:21:34 43° ESE
Cosmos 1346 Rocket 3.3 19:18:03 10° NNW 19:22:01 58° W 19:23:11 40° SSW
IGS 5A 4.3 19:23:27 38° NNE 19:23:27 38° NNE 19:26:24 10° N
Cosmos 1733 3.4 19:24:40 67° WSW 19:24:54 69° W 19:28:42 10° N
Cosmos 1626 2.7 19:23:29 10° NNW 19:27:06 52° W 19:27:24 51° WSW
ATLAS CENTAUR R/B 2.8 19:23:57 10° NW 19:28:22 41° WSW 19:30:04 30° SSW
Ariane Rocket 2.8 19:30:42 69° ESE 19:31:03 72° ENE 19:36:08 10° N
SJ 16-02 1.6 19:30:30 10° SSW 19:34:53 68° WNW 19:39:20 10° NNE
USA 215 3.8 19:33:58 31° S 19:36:50 50° SW 19:43:12 10° WNW
Landsat 7 4.2 19:39:18 52° NNE 19:39:18 52° NNE 19:43:10 10° N
Cosmos 1538 Rocket 4.0 19:35:54 10° NNW 19:41:17 81° WSW 19:41:54 69° S
Sich 1 Rocket 3.8 19:44:12 68° NNW 19:44:12 68° NNW 19:48:17 10° N
Meteor 2-20 4.5 19:44:16 10° NNW 19:50:22 77° W 19:51:55 52° SSW
SL-8 Rocket 4.0 19:47:13 26° SSW 19:50:58 80° W 19:57:19 10° N
SPOT 3 Rocket 4.0 19:52:55 49° NNE 19:52:55 49° NNE 19:56:54 10° N
Lacrosse 5 rocket 2.6 19:48:03 10° WNW 19:51:42 40° WSW 19:51:42 40° WSW
Meteor 2-10 4.1 19:55:23 77° NNE 19:55:23 77° NNE 20:00:33 10° N
BREEZE-M DEB (TANK) 4.3 19:37:58 10° WNW 19:55:43 75° SSW 19:56:49 63° SSE
Meteor 1-24 Rocket 3.7 19:51:53 10° N 19:56:39 71° N 19:56:39 71° N
Cosmos 1315 Rocket 4.4 19:58:57 33° WNW 19:59:00 33° WNW 20:02:41 10° N
Cosmos 2297 Rocket 4.1 19:55:37 10° N 19:58:27 17° NNE 19:58:27 17° NNE
Cosmos 1727 Rocket 4.0 19:59:54 10° N 20:05:38 68° NE 20:05:38 68° NE
Cosmos 2369 Rocket 3.9 20:15:52 10° WSW 20:20:50 31° NW 20:25:48 10° N
Cosmos 2227 Rocket 4.2 20:17:26 10° N 20:19:56 17° NNE 20:19:56 17° NNE
Resurs 01 Rocket 3.4 20:24:08 30° NW 20:24:08 30° NW 20:26:40 10° NNW
NOSS 3-3 (A) 4.4 20:27:29 10° NW 20:34:58 86° N 20:34:58 86° N
NOSS 3-3 (C) 4.4 20:27:35 10° NW 20:35:03 86° N 20:35:03 86° N
Terra 4.3 20:58:40 16° N 20:58:40 16° N 20:59:39 10° N
USA 281 4.2 21:00:08 10° NNE 21:06:13 41° NW 21:08:21 32° W
CENTAUR R/B 4.3 21:45:13 27° N 21:45:13 27° N 21:48:50 10° NNE
Cosmos 2297 Rocket 4.4 21:38:32 10° NNW 21:40:14 20° NNW 21:40:14 20° NNW
